Hourly Data Report for June 07, 2021

FISHER BRANCH (AUT)
MANITOBA
Current Station Operator: ECCC - MSC

51°05'00.100" N
97°33'16.200" W
253.00 m
50309J6
71442
WSZ

Download Data

Hourly Data (June 2021)
Hourly Data Report for June 7, 2021
TIME
LST
Temp Definition
°C
Dew Point Definition
°C
Rel Hum Definition
%
Precip. Amount Definition
mm

Wind Dir Definition
10's deg

Wind Spd Definition
km/h
Visibility Definition
km
Stn Press Definition
kPa
Hmdx Definition


Wind Chill Definition


Weather Definition


00:00 16.2 7.9 58 0.0 29 21   97.30     LegendNANA
01:00 14.5 8.4 66 0.0 28 10   97.46     LegendNANA
02:00 13.3 8.4 72 0.0 27 8   97.57     LegendNANA
03:00 11.8 8.2 79 0.0 29 10   97.64     LegendNANA
04:00 10.6 8.1 85 0.0 26 7   97.67     LegendNANA
05:00 8.2 5.4 83 0.0 13 3   97.68     LegendNANA
06:00 12.5 8.6 77 0.0 24 6   97.79     LegendNANA
07:00 15.9 10.2 69 0.0 23 5   97.86     LegendNANA
08:00 18.2 9.5 57 0.0 22 4   97.85     LegendNANA
09:00 19.2 8.8 51 0.0 21 5   97.92     LegendNANA
10:00 19.2 8.4 50 0.0 24 11   98.07     LegendNANA
11:00 19.1 8.4 50 0.0 22 8   97.99     LegendNANA
12:00 18.6 9.3 55 0.0 27 6   98.04     LegendNANA
13:00 17.3 11.2 67 0.0 26 10   98.15     LegendNANA
14:00 18.5 9.1 54 0.0 23 8   98.13     LegendNANA
15:00 19.7 8.3 48 0.0 20 10   98.12     LegendNANA
16:00 20.2 8.4 47 0.0 26 5   98.12     LegendNANA
17:00 19.2 10.8 58 0.0 34 8   98.14     LegendNANA
18:00 19.7 10.1 54 0.0 36 5   98.14     LegendNANA
19:00 19.0 11.3 61 0.0 6 10   98.16     LegendNANA
20:00 17.4 10.6 64 0.0 7 8   98.16     LegendNANA
21:00 15.1 10.5 74 0.0 5 10   98.15     LegendNANA
22:00 13.5 10.0 80 0.0 6 4   98.22     LegendNANA
23:00 12.6 9.9 83 0.0 11 7   98.27     LegendNANA

Notes on Data Quality.

Legend

  • E = Estimated
  • M = Missing
  • NA = Not Available*
  • [empty] = Indicates an unobserved value
Date modified: